| time (UTC) | temp F | wind direction | speed MPH | gust MPH | rain 1hr in | rain 24hr in | rain mn in | humidity % | barometer mb |
| 20260510114005 | 52 | 51 | 9.0 | 22.0 | 0.00 | 0.00 | 0.00 | 74 | 1018.0 |
| 20260510113003 | 52 | 49 | 6.0 | 24.0 | 0.00 | 0.00 | 0.00 | 76 | 1018.2 |
| 20260510111003 | 51 | 41 | 4.0 | 15.0 | 0.00 | 0.00 | 0.00 | 77 | 1018.4 |
| 20260510110004 | 51 | 46 | 4.0 | 16.0 | 0.00 | 0.00 | 0.00 | 78 | 1018.5 |
| 20260510105005 | 52 | 59 | 6.0 | 22.0 | 0.00 | 0.00 | 0.00 | 76 | 1018.7 |
| 20260510104005 | 52 | 49 | 4.0 | 18.0 | 0.00 | 0.00 | 0.00 | 76 | 1018.6 |
| 20260510103005 | 52 | 57 | 6.0 | 16.0 | 0.00 | 0.00 | 0.00 | 77 | 1018.5 |
| 20260510102005 | 52 | 46 | 6.0 | 16.0 | 0.00 | 0.00 | 0.00 | 77 | 1018.6 |
| 20260510101005 | 52 | 57 | 6.0 | 19.0 | 0.00 | 0.00 | 0.00 | 79 | 1018.7 |
| 20260510100004 | 52 | 45 | 4.0 | 16.0 | 0.00 | 0.00 | 0.00 | 79 | 1018.7 |
| 20260510095005 | 51 | 58 | 4.0 | 15.0 | 0.00 | 0.00 | 0.00 | 81 | 1018.8 |
| 20260510094005 | 51 | 53 | 4.0 | 19.0 | 0.00 | 0.00 | 0.00 | 83 | 1018.9 |
| 20260510093004 | 50 | 52 | 4.0 | 15.0 | 0.00 | 0.00 | 0.00 | 84 | 1019.0 |
| 20260510092005 | 51 | 41 | 4.0 | 15.0 | 0.00 | 0.00 | 0.00 | 84 | 1019.0 |
| 20260510090008 | 51 | 50 | 6.0 | 19.0 | 0.00 | 0.00 | 0.00 | 83 | 1019.0 |
| 20260510084005 | 51 | 46 | 6.0 | 15.0 | 0.00 | 0.00 | 0.00 | 83 | 1018.9 |
| 20260510083005 | 51 | 53 | 4.0 | 15.0 | 0.00 | 0.00 | 0.00 | 83 | 1019.0 |
| 20260510082006 | 51 | 51 | 7.0 | 19.0 | 0.00 | 0.00 | 0.00 | 83 | 1019.0 |
| 20260510080004 | 51 | 53 | 4.0 | 18.0 | 0.00 | 0.00 | 0.00 | 83 | 1019.0 |
| 20260510075004 | 51 | 52 | 6.0 | 18.0 | 0.00 | 0.00 | 0.00 | 84 | 1018.9 |
| 20260510074004 | 51 | 52 | 6.0 | 15.0 | 0.00 | 0.00 | 0.00 | 85 | 1018.9 |
| 20260510073005 | 50 | 52 | 4.0 | 16.0 | 0.00 | 0.00 | 0.00 | 86 | 1018.9 |
| 20260510072005 | 50 | 47 | 4.0 | 15.0 | 0.00 | 0.00 | 0.00 | 86 | 1018.9 |
| 20260510071006 | 50 | 54 | 4.0 | 18.0 | 0.00 | 0.00 | 0.00 | 87 | 1018.9 |
| 20260510070005 | 50 | 51 | 6.0 | 15.0 | 0.00 | 0.00 | 0.00 | 88 | 1018.7 |
| 20260510065006 | 50 | 49 | 6.0 | 19.0 | 0.00 | 0.00 | 0.00 | 89 | 1018.7 |
| 20260510064006 | 50 | 53 | 4.0 | 15.0 | 0.00 | 0.00 | 0.00 | 90 | 1018.7 |
| 20260510063004 | 50 | 46 | 4.0 | 16.0 | 0.00 | 0.00 | 0.00 | 92 | 1018.6 |
| 20260510062006 | 49 | 43 | 4.0 | 13.0 | 0.00 | 0.00 | 0.00 | 93 | 1018.6 |
| 20260510060006 | 49 | 41 | 4.0 | 13.0 | 0.00 | 0.00 | 0.00 | 95 | 1018.5 |
| 20260510055005 | 49 | 34 | 4.0 | 13.0 | 0.00 | 0.00 | 0.00 | 95 | 1018.4 |
| 20260510053004 | 48 | 47 | 4.0 | 15.0 | 0.00 | 0.00 | 0.00 | 95 | 1018.3 |
| 20260510052005 | 47 | 44 | 4.0 | 12.0 | 0.00 | 0.00 | 0.00 | 96 | 1018.3 |
| 20260510051004 | 47 | 44 | 3.0 | 9.0 | 0.00 | 0.00 | 0.00 | 95 | 1018.4 |
| 20260510050005 | 47 | 48 | 4.0 | 10.0 | 0.00 | 0.00 | 0.00 | 95 | 1018.4 |
| 20260510045005 | 46 | 51 | 4.0 | 10.0 | 0.00 | 0.00 | 0.00 | 95 | 1018.4 |
| 20260510043004 | 46 | 50 | 3.0 | 7.0 | 0.00 | 0.00 | 0.00 | 95 | 1018.6 |
| 20260510042006 | 46 | 45 | 1.0 | 6.0 | 0.00 | 0.00 | 0.00 | 95 | 1018.7 |
| 20260510041005 | 46 | 29 | 1.0 | 4.0 | 0.00 | 0.00 | 0.00 | 95 | 1018.6 |
| 20260510040006 | 46 | 39 | 1.0 | 6.0 | 0.00 | 0.00 | 0.00 | 95 | 1018.7 |
| 20260510034005 | 46 | 49 | 3.0 | 6.0 | 0.00 | 0.00 | 0.00 | 94 | 1018.7 |
| 20260510032005 | 46 | 48 | 1.0 | 4.0 | 0.00 | 0.00 | 0.00 | 94 | 1019.0 |
| 20260510031004 | 47 | 40 | 1.0 | 4.0 | 0.00 | 0.00 | 0.00 | 94 | 1019.0 |
| 20260510030005 | 47 | 34 | 1.0 | 4.0 | 0.00 | 0.00 | 0.00 | 94 | 1019.0 |
| 20260510025004 | 47 | 0 | 0.0 | 4.0 | 0.00 | 0.00 | 0.00 | 94 | 1019.3 |
| 20260510024004 | 47 | 27 | 1.0 | 6.0 | 0.00 | 0.00 | 0.00 | 93 | 1019.2 |
| 20260510023006 | 48 | 32 | 1.0 | 4.0 | 0.00 | 0.00 | 0.00 | 93 | 1019.2 |
| 20260510022005 | 48 | 32 | 1.0 | 6.0 | 0.00 | 0.00 | 0.00 | 93 | 1019.1 |
| 20260510021006 | 48 | 40 | 3.0 | 9.0 | 0.00 | 0.00 | 0.00 | 94 | 1019.1 |
| 20260510020006 | 48 | 39 | 4.0 | 16.0 | 0.00 | 0.00 | 0.00 | 94 | 1019.1 |
| 20260510014005 | 48 | 39 | 1.0 | 10.0 | 0.00 | 0.00 | 0.00 | 94 | 1019.2 |
| 20260510013004 | 48 | 0 | 0.0 | 4.0 | 0.00 | 0.00 | 0.00 | 93 | 1019.3 |
| 20260510012005 | 48 | 0 | 0.0 | 3.0 | 0.00 | 0.00 | 0.00 | 93 | 1019.2 |
| 20260510011004 | 49 | 0 | 0.0 | 4.0 | 0.00 | 0.00 | 0.00 | 93 | 1019.1 |
| 20260510010005 | 49 | 67 | 1.0 | 4.0 | 0.00 | 0.00 | 0.00 | 94 | 1019.1 |
| 20260510005005 | 49 | 48 | 1.0 | 6.0 | 0.00 | 0.00 | 0.00 | 94 | 1019.2 |
| 20260510004006 | 49 | 47 | 3.0 | 6.0 | 0.00 | 0.00 | 0.00 | 94 | 1019.1 |
| 20260510003005 | 49 | 45 | 3.0 | 7.0 | 0.00 | 0.00 | 0.00 | 94 | 1019.0 |
| 20260510002005 | 49 | 37 | 3.0 | 6.0 | 0.00 | 0.00 | 0.00 | 94 | 1019.1 |
| 20260510001004 | 49 | 36 | 1.0 | 10.0 | 0.00 | 0.00 | 0.00 | 94 | 1019.2 |
| 20260509235005 | 49 | 34 | 3.0 | 9.0 | 0.00 | 0.00 | 0.00 | 94 | 1019.3 |
| 20260509234005 | 49 | 50 | 3.0 | 7.0 | 0.00 | 0.00 | 0.00 | 94 | 1019.4 |
| 20260509233005 | 49 | 51 | 3.0 | 7.0 | 0.00 | 0.00 | 0.00 | 94 | 1019.5 |
| 20260509232005 | 49 | 52 | 3.0 | 7.0 | 0.00 | 0.00 | 0.00 | 94 | 1019.6 |
| 20260509231005 | 49 | 57 | 3.0 | 9.0 | 0.00 | 0.00 | 0.00 | 94 | 1019.7 |
| 20260509230005 | 49 | 54 | 3.0 | 9.0 | 0.00 | 0.00 | 0.00 | 94 | 1019.5 |
| 20260509225005 | 49 | 47 | 3.0 | 4.0 | 0.00 | 0.00 | 0.00 | 93 | 1019.4 |
| 20260509223004 | 49 | 54 | 3.0 | 10.0 | 0.00 | 0.00 | 0.00 | 93 | 1019.2 |
| 20260509222004 | 49 | 54 | 3.0 | 7.0 | 0.00 | 0.00 | 0.00 | 92 | 1019.2 |
| 20260509221005 | 49 | 62 | 1.0 | 4.0 | 0.00 | 0.00 | 0.00 | 91 | 1019.3 |
| 20260509220006 | 50 | 57 | 3.0 | 7.0 | 0.00 | 0.00 | 0.00 | 91 | 1019.0 |
| 20260509215005 | 50 | 50 | 3.0 | 6.0 | 0.00 | 0.00 | 0.00 | 90 | 1019.0 |
| 20260509214004 | 50 | 68 | 1.0 | 4.0 | 0.00 | 0.00 | 0.00 | 89 | 1019.0 |
| 20260509213004 | 51 | 63 | 1.0 | 9.0 | 0.00 | 0.00 | 0.00 | 89 | 1019.0 |
| 20260509212004 | 51 | 56 | 1.0 | 4.0 | 0.00 | 0.00 | 0.00 | 87 | 1019.0 |
| 20260509211005 | 51 | 55 | 1.0 | 6.0 | 0.00 | 0.00 | 0.00 | 85 | 1018.7 |
| 20260509210004 | 51 | 62 | 3.0 | 7.0 | 0.00 | 0.00 | 0.00 | 84 | 1018.7 |
| 20260509205005 | 51 | 58 | 3.0 | 10.0 | 0.00 | 0.00 | 0.00 | 82 | 1018.7 |
| 20260509204005 | 52 | 58 | 3.0 | 6.0 | 0.00 | 0.00 | 0.00 | 80 | 1018.8 |
| 20260509203004 | 52 | 61 | 1.0 | 4.0 | 0.00 | 0.00 | 0.00 | 78 | 1018.8 |
| 20260509202005 | 53 | 56 | 1.0 | 4.0 | 0.00 | 0.00 | 0.00 | 77 | 1018.7 |
| 20260509201004 | 53 | 0 | 0.0 | 3.0 | 0.00 | 0.00 | 0.00 | 75 | 1018.8 |
| 20260509200004 | 54 | 0 | 0.0 | 3.0 | 0.00 | 0.00 | 0.00 | 73 | 1018.8 |
| 20260509195004 | 55 | 58 | 1.0 | 6.0 | 0.00 | 0.00 | 0.00 | 71 | 1018.6 |
| 20260509194005 | 55 | 56 | 1.0 | 4.0 | 0.00 | 0.00 | 0.00 | 68 | 1018.6 |
| 20260509193004 | 56 | 63 | 1.0 | 4.0 | 0.00 | 0.00 | 0.00 | 67 | 1018.3 |
| 20260509192005 | 57 | 63 | 1.0 | 4.0 | 0.00 | 0.00 | 0.00 | 64 | 1018.3 |
| 20260509191004 | 57 | 67 | 1.0 | 7.0 | 0.00 | 0.00 | 0.00 | 62 | 1018.2 |
| 20260509185004 | 59 | 70 | 1.0 | 7.0 | 0.00 | 0.00 | 0.00 | 60 | 1017.9 |
| 20260509184005 | 59 | 82 | 1.0 | 4.0 | 0.00 | 0.00 | 0.00 | 58 | 1017.9 |
| 20260509183004 | 60 | 69 | 1.0 | 6.0 | 0.00 | 0.00 | 0.00 | 56 | 1017.8 |
| 20260509182004 | 60 | 69 | 1.0 | 6.0 | 0.00 | 0.00 | 0.00 | 54 | 1017.9 |
| 20260509181004 | 61 | 55 | 1.0 | 9.0 | 0.00 | 0.00 | 0.00 | 53 | 1018.0 |
| 20260509180004 | 61 | 66 | 1.0 | 12.0 | 0.00 | 0.00 | 0.00 | 52 | 1018.0 |
| 20260509175004 | 61 | 56 | 3.0 | 12.0 | 0.00 | 0.00 | 0.00 | 52 | 1018.1 |
| 20260509174004 | 62 | 58 | 3.0 | 13.0 | 0.00 | 0.00 | 0.00 | 51 | 1018.2 |
| 20260509173004 | 62 | 62 | 3.0 | 12.0 | 0.00 | 0.00 | 0.00 | 50 | 1018.0 |
| 20260509172005 | 62 | 54 | 3.0 | 12.0 | 0.00 | 0.00 | 0.00 | 49 | 1018.0 |
| 20260509171004 | 63 | 62 | 1.0 | 7.0 | 0.00 | 0.00 | 0.00 | 48 | 1018.1 |
| 20260509170004 | 64 | 66 | 3.0 | 9.0 | 0.00 | 0.00 | 0.00 | 47 | 1018.1 |
| 20260509165005 | 65 | 62 | 3.0 | 13.0 | 0.00 | 0.00 | 0.00 | 46 | 1018.1 |
| 20260509164004 | 65 | 54 | 4.0 | 10.0 | 0.00 | 0.00 | 0.00 | 46 | 1018.0 |
| 20260509163004 | 66 | 59 | 4.0 | 12.0 | 0.00 | 0.00 | 0.00 | 45 | 1018.0 |
| 20260509162005 | 66 | 53 | 4.0 | 13.0 | 0.00 | 0.00 | 0.00 | 44 | 1018.0 |
| 20260509161004 | 66 | 50 | 4.0 | 10.0 | 0.00 | 0.00 | 0.00 | 44 | 1017.7 |
| 20260509160004 | 67 | 69 | 3.0 | 13.0 | 0.00 | 0.00 | 0.00 | 42 | 1017.6 |
| 20260509155005 | 67 | 56 | 4.0 | 15.0 | 0.00 | 0.00 | 0.00 | 42 | 1017.5 |
| 20260509154004 | 68 | 76 | 3.0 | 12.0 | 0.00 | 0.00 | 0.00 | 41 | 1017.6 |
| 20260509153004 | 68 | 69 | 4.0 | 15.0 | 0.00 | 0.00 | 0.00 | 43 | 1017.5 |
| 20260509152004 | 68 | 82 | 3.0 | 6.0 | 0.00 | 0.00 | 0.00 | 45 | 1017.5 |
| 20260509151004 | 68 | 84 | 4.0 | 13.0 | 0.00 | 0.00 | 0.00 | 44 | 1017.5 |
| 20260509145004 | 67 | 54 | 4.0 | 13.0 | 0.00 | 0.00 | 0.00 | 45 | 1017.6 |
| 20260509144005 | 68 | 60 | 4.0 | 12.0 | 0.00 | 0.00 | 0.00 | 44 | 1017.6 |
| 20260509143005 | 69 | 75 | 3.0 | 12.0 | 0.00 | 0.00 | 0.00 | 43 | 1017.7 |
| 20260509142004 | 68 | 61 | 4.0 | 15.0 | 0.00 | 0.00 | 0.00 | 43 | 1017.8 |
| 20260509141005 | 69 | 56 | 3.0 | 13.0 | 0.00 | 0.00 | 0.00 | 42 | 1017.7 |
| 20260509140005 | 69 | 68 | 4.0 | 13.0 | 0.00 | 0.00 | 0.00 | 43 | 1017.8 |
| 20260509135005 | 69 | 80 | 1.0 | 7.0 | 0.00 | 0.00 | 0.00 | 43 | 1017.8 |
| 20260509134004 | 69 | 59 | 4.0 | 12.0 | 0.00 | 0.00 | 0.00 | 42 | 1018.0 |
| 20260509133005 | 69 | 55 | 4.0 | 13.0 | 0.00 | 0.00 | 0.00 | 42 | 1018.0 |
| 20260509132004 | 70 | 77 | 3.0 | 10.0 | 0.00 | 0.00 | 0.00 | 42 | 1017.9 |
| 20260509131004 | 69 | 69 | 3.0 | 13.0 | 0.00 | 0.00 | 0.00 | 43 | 1018.1 |
| 20260509130004 | 70 | 114 | 3.0 | 10.0 | 0.00 | 0.00 | 0.00 | 43 | 1018.1 |
| 20260509121004 | 69 | 56 | 4.0 | 12.0 | 0.00 | 0.00 | 0.00 | 42 | 1018.3 |